Hourly Weather Chama

Today, 25 June, Friday

Time Temperature Precipitation Wind Pressure Humidity
00:00 +18°C° 0 mm 1 mps 698 mmHg 69%
01:00 +16°C° 0 mm 1 mps 698 mmHg 73%
02:00 +16°C° 0 mm 1 mps 697 mmHg 74%
03:00 +14°C° 0 mm 0 mps 697 mmHg 77%
04:00 +14°C° 0 mm 0 mps 697 mmHg 80%
05:00 +13°C° 0 mm 0 mps 697 mmHg 83%
06:00 +15°C° 0 mm 0 mps 698 mmHg 75%
07:00 +17°C° 0 mm 0 mps 699 mmHg 68%
08:00 +19°C° 0 mm 0 mps 700 mmHg 61%
09:00 +23°C° 0 mm 1 mps 700 mmHg 53%
10:00 +26°C° 0 mm 1 mps 700 mmHg 45%
11:00 +28°C° 0 mm 1 mps 700 mmHg 37%
12:00 +29°C° 0 mm 2 mps 699 mmHg 34%
13:00 +30°C° 0 mm 2 mps 698 mmHg 30%
14:00 +31°C° 0 mm 2 mps 697 mmHg 27%
15:00 +29°C° 0 mm 2 mps 697 mmHg 29%
16:00 +28°C° 0 mm 2 mps 697 mmHg 31%
17:00 +27°C° 0 mm 2 mps 696 mmHg 34%
18:00 +25°C° 0 mm 2 mps 697 mmHg 38%
19:00 +23°C° 0 mm 2 mps 697 mmHg 43%
20:00 +20°C° 0 mm 2 mps 697 mmHg 48%
21:00 +20°C° 0 mm 1 mps 697 mmHg 52%
22:00 +19°C° 0 mm 1 mps 697 mmHg 57%
23:00 +18°C° 0 mm 1 mps 697 mmHg 61%

Tomorrow, 26 June, Saturday

Time Temperature Precipitation Wind Pressure Humidity
00:00 +16°C° 0 mm 1 mps 696 mmHg 63%
01:00 +16°C° 0 mm 1 mps 696 mmHg 66%
02:00 +15°C° 0 mm 1 mps 696 mmHg 68%
03:00 +14°C° 0 mm 0 mps 696 mmHg 71%
04:00 +14°C° 0 mm 0 mps 696 mmHg 73%
05:00 +13°C° 0 mm 0 mps 696 mmHg 75%
06:00 +15°C° 0 mm 0 mps 697 mmHg 68%
07:00 +17°C° 0 mm 0 mps 697 mmHg 62%
08:00 +19°C° 0 mm 0 mps 698 mmHg 55%
09:00 +21°C° 0 mm 0 mps 698 mmHg 48%
10:00 +26°C° 0 mm 1 mps 698 mmHg 41%
11:00 +29°C° 0 mm 1 mps 699 mmHg 34%
12:00 +30°C° 0 mm 1 mps 698 mmHg 30%
13:00 +31°C° 0 mm 2 mps 697 mmHg 26%
14:00 +31°C° 0 mm 2 mps 696 mmHg 23%
15:00 +30°C° 0 mm 2 mps 696 mmHg 25%
16:00 +29°C° 0 mm 2 mps 695 mmHg 27%
17:00 +28°C° 0 mm 1 mps 695 mmHg 29%
18:00 +25°C° 0 mm 1 mps 696 mmHg 33%
19:00 +23°C° 0 mm 1 mps 696 mmHg 37%
20:00 +21°C° 0 mm 1 mps 696 mmHg 40%
21:00 +20°C° 0 mm 1 mps 696 mmHg 45%
22:00 +19°C° 0 mm 1 mps 696 mmHg 49%
23:00 +18°C° 0 mm 1 mps 696 mmHg 53%

Day after tomorrow, 27 June, Sunday

Time Temperature Precipitation Wind Pressure Humidity
00:00 +18°C° 0 mm 1 mps 696 mmHg 55%
01:00 +16°C° 0 mm 1 mps 696 mmHg 57%
02:00 +15°C° 0 mm 1 mps 696 mmHg 58%
03:00 +15°C° 0 mm 1 mps 696 mmHg 60%
04:00 +13°C° 0 mm 0 mps 696 mmHg 62%
05:00 +13°C° 0 mm 0 mps 696 mmHg 64%
06:00 +15°C° 0 mm 0 mps 697 mmHg 59%
07:00 +17°C° 0 mm 0 mps 698 mmHg 54%
08:00 +19°C° 0 mm 0 mps 699 mmHg 48%
09:00 +24°C° 0 mm 1 mps 699 mmHg 43%
10:00 +26°C° 0 mm 1 mps 699 mmHg 37%
11:00 +29°C° 0 mm 1 mps 699 mmHg 31%
12:00 +30°C° 0 mm 1 mps 698 mmHg 28%
13:00 +32°C° 0 mm 1 mps 697 mmHg 25%
14:00 +33°C° 0 mm 1 mps 696 mmHg 21%
15:00 +31°C° 0 mm 1 mps 696 mmHg 24%
16:00 +30°C° 0 mm 1 mps 696 mmHg 27%
17:00 +29°C° 0 mm 2 mps 696 mmHg 29%
18:00 +26°C° 0 mm 2 mps 696 mmHg 34%
19:00 +24°C° 0 mm 1 mps 697 mmHg 38%
20:00 +21°C° 0 mm 1 mps 697 mmHg 43%
21:00 +20°C° 0 mm 1 mps 697 mmHg 46%
22:00 +19°C° 0 mm 1 mps 697 mmHg 50%
23:00 +18°C° 0 mm 1 mps 697 mmHg 53%

28 June, Monday

Time Temperature Precipitation Wind Pressure Humidity
00:00 +18°C° 0 mm 1 mps 697 mmHg 56%
01:00 +16°C° 0 mm 1 mps 697 mmHg 58%
02:00 +15°C° 0 mm 1 mps 696 mmHg 61%
03:00 +15°C° 0 mm 1 mps 696 mmHg 62%
04:00 +15°C° 0 mm 1 mps 697 mmHg 64%
05:00 +14°C° 0 mm 1 mps 697 mmHg 66%
06:00 +16°C° 0 mm 1 mps 698 mmHg 61%
07:00 +17°C° 0 mm 0 mps 698 mmHg 55%
08:00 +19°C° 0 mm 0 mps 699 mmHg 50%
09:00 +23°C° 0 mm 1 mps 699 mmHg 44%
10:00 +26°C° 0 mm 1 mps 699 mmHg 37%
11:00 +29°C° 0 mm 1 mps 699 mmHg 31%
12:00 +30°C° 0 mm 1 mps 699 mmHg 28%
13:00 +31°C° 0 mm 1 mps 698 mmHg 25%
14:00 +33°C° 0 mm 1 mps 697 mmHg 22%
15:00 +32°C° 0 mm 2 mps 697 mmHg 23%
16:00 +30°C° 0 mm 2 mps 697 mmHg 25%
17:00 +29°C° 0 mm 3 mps 697 mmHg 27%
18:00 +27°C° 0 mm 3 mps 697 mmHg 32%
19:00 +24°C° 0 mm 2 mps 697 mmHg 37%
20:00 +21°C° 0 mm 2 mps 698 mmHg 43%
21:00 +20°C° 0 mm 2 mps 698 mmHg 47%
22:00 +20°C° 0 mm 1 mps 698 mmHg 52%
23:00 +18°C° 0 mm 1 mps 698 mmHg 56%

29 June, Tuesday

Time Temperature Precipitation Wind Pressure Humidity
00:00 +18°C° 0 mm 1 mps 697 mmHg 59%
01:00 +16°C° 0 mm 1 mps 697 mmHg 61%
02:00 +14°C° 0 mm 0 mps 697 mmHg 64%
03:00 +14°C° 0 mm 0 mps 697 mmHg 66%
04:00 +14°C° 0 mm 0 mps 697 mmHg 68%
05:00 +13°C° 0 mm 0 mps 697 mmHg 70%
06:00 +15°C° 0 mm 0 mps 698 mmHg 64%
07:00 +17°C° 0 mm 0 mps 699 mmHg 58%
08:00 +19°C° 0 mm 0 mps 700 mmHg 51%
09:00 +23°C° 0 mm 1 mps 700 mmHg 45%
10:00 +26°C° 0 mm 1 mps 700 mmHg 39%
11:00 +29°C° 0 mm 1 mps 700 mmHg 32%
12:00 +30°C° 0 mm 1 mps 699 mmHg 29%
13:00 +31°C° 0 mm 1 mps 698 mmHg 25%
14:00 +33°C° 0 mm 1 mps 697 mmHg 22%
15:00 +31°C° 0 mm 1 mps 697 mmHg 24%
16:00 +30°C° 0 mm 1 mps 697 mmHg 26%
17:00 +29°C° 0 mm 1 mps 697 mmHg 28%
18:00 +26°C° 0 mm 1 mps 697 mmHg 33%
19:00 +24°C° 0 mm 1 mps 698 mmHg 37%
20:00 +22°C° 0 mm 1 mps 698 mmHg 41%
21:00 +21°C° 0 mm 1 mps 698 mmHg 44%
22:00 +20°C° 0 mm 1 mps 698 mmHg 48%
23:00 +19°C° 0 mm 1 mps 698 mmHg 52%

30 June, Wednesday

Time Temperature Precipitation Wind Pressure Humidity
00:00 +18°C° 0 mm 1 mps 698 mmHg 55%
01:00 +18°C° 0 mm 1 mps 697 mmHg 58%
02:00 +15°C° 0 mm 0 mps 697 mmHg 61%
03:00 +15°C° 0 mm 1 mps 697 mmHg 63%
04:00 +15°C° 0 mm 1 mps 697 mmHg 66%
05:00 +14°C° 0 mm 1 mps 698 mmHg 68%
06:00 +16°C° 0 mm 1 mps 698 mmHg 62%
07:00 +19°C° 0 mm 1 mps 699 mmHg 56%
08:00 +21°C° 0 mm 1 mps 700 mmHg 50%
09:00 +24°C° 0 mm 1 mps 700 mmHg 44%
10:00 +26°C° 0 mm 1 mps 700 mmHg 38%
11:00 +29°C° 0 mm 1 mps 700 mmHg 32%
12:00 +30°C° 0 mm 1 mps 700 mmHg 28%
13:00 +32°C° 0 mm 1 mps 699 mmHg 25%
14:00 +33°C° 0 mm 1 mps 698 mmHg 22%
15:00 +32°C° 0 mm 1 mps 698 mmHg 25%
16:00 +30°C° 0 mm 1 mps 697 mmHg 27%
17:00 +29°C° 0 mm 1 mps 697 mmHg 30%
18:00 +27°C° 0 mm 1 mps 697 mmHg 35%
19:00 +24°C° 0 mm 1 mps 698 mmHg 39%
20:00 +22°C° 0 mm 1 mps 698 mmHg 44%
21:00 +21°C° 0 mm 1 mps 698 mmHg 47%
22:00 +20°C° 0 mm 1 mps 698 mmHg 50%
23:00 +19°C° 0 mm 1 mps 698 mmHg 53%
Show more

We Need Your Consent

Meteoprog and our Service Providers may store and access personal data such as cookies, device identifiers or other similar technologies on your device and process such data to personalise content and ads, as well as provide social media features and to analyse the traffic.

  • Store and/or access information on your device

    Cookies, device identifiers or other information can be stored or accessed on your device for the purposes indicated above.

  • Personalised ads and content, ad and content measurement, audience insights, and products development

    Ads and content can be personalised based on a profile. More data can be added to better personalise ads and content. Ad and content performance can be measured. Insights about the audience who saw the ads and content can be derived. Such data can be used to develop or improve user’s experience, systems and software.

By clicking ‘I Agree’ you will allow the use of indicated cookies, device identifiers, web beacons or other similar technologies. Your settings can be changed in the browser on your device.

For certain purposes, legitimate interests may be relied on, rather than consent. You can read more about this in our Privacy and Cookie Policy.